�������l�o���
Date,Time,MP-1(��Sv/h),MP-2(��Sv/h),MP-3(��Sv/h),MP-4(��Sv/h),MP-5(��Sv/h),MP-6(��Sv/h),MP-7(��Sv/h),MP-8(��Sv/h),����,����(m/s),���J
2017/12/24,00:00,0.904,1.507,0.946,1.777,1.203,0.494,0.883,0.849,��,9.9,��
2017/12/24,00:10,0.905,1.509,0.943,1.779,1.206,0.496,0.881,0.848,��,9.4,��
2017/12/24,00:20,0.904,1.505,0.944,1.782,1.204,0.495,0.884,0.847,���쐼,8.7,��
2017/12/24,00:30,0.905,1.507,0.944,1.781,1.208,0.495,0.882,0.849,���쐼,7.9,��
2017/12/24,00:40,0.904,1.508,0.944,1.780,1.205,0.497,0.885,0.849,��,9.2,��
2017/12/24,00:50,0.904,1.506,0.944,1.782,1.205,0.497,0.883,0.847,��,10.8,��
2017/12/24,01:00,0.904,1.505,0.945,1.779,1.203,0.497,0.884,0.846,��,9.4,��
2017/12/24,01:10,0.902,1.505,0.945,1.779,1.205,0.496,0.881,0.850,��,9.4,��
2017/12/24,01:20,0.902,1.504,0.944,1.780,1.201,0.496,0.884,0.849,��,7.7,��
2017/12/24,01:30,0.903,1.506,0.943,1.780,1.203,0.498,0.884,0.850,��,7.9,��
2017/12/24,01:40,0.904,1.506,0.945,1.779,1.203,0.496,0.884,0.848,��,8.4,��
2017/12/24,01:50,0.904,1.506,0.943,1.782,1.204,0.496,0.883,0.848,��,7.8,��
2017/12/24,02:00,0.902,1.510,0.943,1.780,1.203,0.495,0.884,0.848,��,7.3,��
2017/12/24,02:10,0.905,1.506,0.944,1.781,1.204,0.495,0.883,0.848,��,7.1,��
2017/12/24,02:20,0.903,1.504,0.943,1.779,1.203,0.498,0.883,0.848,��,7.3,��
2017/12/24,02:30,0.903,1.504,0.944,1.780,1.205,0.496,0.885,0.848,���k��,5.5,��
2017/12/24,02:40,0.903,1.506,0.945,1.781,1.202,0.496,0.883,0.847,��,5.4,��
2017/12/24,02:50,0.905,1.506,0.943,1.782,1.203,0.497,0.883,0.849,��,5.6,��
2017/12/24,03:00,0.906,1.504,0.943,1.779,1.203,0.496,0.883,0.848,��,9.2,��
2017/12/24,03:10,0.905,1.506,0.945,1.780,1.203,0.495,0.883,0.848,��,8.8,��
2017/12/24,03:20,0.905,1.505,0.944,1.780,1.201,0.497,0.883,0.847,��,7.9,��
2017/12/24,03:30,0.902,1.506,0.946,1.779,1.205,0.498,0.885,0.849,��,7.7,��
2017/12/24,03:40,0.904,1.506,0.945,1.781,1.203,0.496,0.883,0.849,��,6.8,��
2017/12/24,03:50,0.905,1.507,0.945,1.779,1.203,0.497,0.882,0.847,��,6.8,��
2017/12/24,04:00,0.905,1.503,0.942,1.779,1.201,0.494,0.884,0.849,��,6.5,��
2017/12/24,04:10,0.902,1.504,0.944,1.780,1.203,0.497,0.883,0.849,���k��,6.3,��
2017/12/24,04:20,0.906,1.504,0.944,1.777,1.204,0.496,0.884,0.848,���k��,6.8,��
2017/12/24,04:30,0.902,1.505,0.945,1.779,1.203,0.495,0.884,0.846,���k��,6.5,��
2017/12/24,04:40,0.903,1.506,0.944,1.777,1.202,0.496,0.883,0.850,���k��,4.7,��
2017/12/24,04:50,0.901,1.507,0.943,1.780,1.202,0.495,0.883,0.847,��,6.0,��
2017/12/24,05:00,0.904,1.505,0.942,1.780,1.203,0.496,0.883,0.848,��,4.8,��
2017/12/24,05:10,0.902,1.505,0.943,1.779,1.200,0.496,0.882,0.847,���쐼,4.4,��
2017/12/24,05:20,0.903,1.504,0.940,1.780,1.202,0.496,0.883,0.846,���쐼,3.8,��
2017/12/24,05:30,0.905,1.506,0.942,1.782,1.203,0.495,0.883,0.848,��쐼,2.9,��
2017/12/24,05:40,0.903,1.504,0.942,1.778,1.204,0.495,0.883,0.848,�쐼,3.4,��
2017/12/24,05:50,0.904,1.503,0.945,1.779,1.199,0.495,0.883,0.850,�쐼,6.0,��
2017/12/24,06:00,0.903,1.501,0.943,1.778,1.202,0.497,0.883,0.848,���쐼,5.9,��
2017/12/24,06:10,0.900,1.503,0.944,1.775,1.203,0.497,0.881,0.847,��,4.5,��
2017/12/24,06:20,0.901,1.506,0.942,1.778,1.204,0.495,0.881,0.847,���쐼,4.3,��
2017/12/24,06:30,0.903,1.506,0.943,1.779,1.202,0.496,0.882,0.848,�쐼,3.4,��
2017/12/24,06:40,0.901,1.505,0.942,1.778,1.202,0.496,0.882,0.847,��쓌,1.4,��
2017/12/24,06:50,0.904,1.502,0.942,1.776,1.203,0.496,0.881,0.848,�쐼,4.1,��
2017/12/24,07:00,0.904,1.505,0.943,1.779,1.202,0.495,0.882,0.846,��쐼,5.0,��
2017/12/24,07:10,0.903,1.503,0.943,1.777,1.200,0.496,0.882,0.849,��쐼,4.3,��
2017/12/24,07:20,0.901,1.505,0.943,1.778,1.202,0.494,0.883,0.848,�쐼,3.5,��
2017/12/24,07:30,0.901,1.503,0.940,1.781,1.202,0.495,0.882,0.849,�쐼,3.7,��
2017/12/24,07:40,0.904,1.504,0.943,1.779,1.204,0.494,0.884,0.848,�쐼,3.3,��
2017/12/24,07:50,0.905,1.505,0.944,1.778,1.202,0.495,0.881,0.848,�쐼,2.9,��
2017/12/24,08:00,0.903,1.505,0.945,1.778,1.202,0.495,0.882,0.847,�쐼,2.2,��
2017/12/24,08:10,0.903,1.506,0.945,1.783,1.204,0.497,0.884,0.848,���쐼,1.5,��
2017/12/24,08:20,0.902,1.506,0.946,1.778,1.204,0.496,0.885,0.848,�쐼,1.2,��
2017/12/24,08:30,0.903,1.505,0.944,1.780,1.204,0.495,0.883,0.849,���쐼,1.1,��
2017/12/24,08:40,0.904,1.505,0.942,1.779,1.204,0.495,0.884,0.848,�쐼,0.9,��
2017/12/24,08:50,0.905,1.507,0.945,1.780,1.204,0.496,0.882,0.848,�쐼,1.2,��
2017/12/24,09:00,0.906,1.505,0.945,1.778,1.203,0.495,0.882,0.848,��,1.4,��
2017/12/24,09:10,0.905,1.508,0.946,1.781,1.204,0.495,0.885,0.849,��쐼,1.1,��
2017/12/24,09:20,0.904,1.504,0.946,1.781,1.205,0.496,0.885,0.848,��쓌,1.2,��
2017/12/24,09:30,0.906,1.507,0.946,1.779,1.204,0.498,0.884,0.849,��쓌,1.7,��
2017/12/24,09:40,0.906,1.507,0.946,1.784,1.207,0.494,0.883,0.849,��쓌,2.0,��
2017/12/24,09:50,0.907,1.509,0.947,1.780,1.207,0.495,0.884,0.851,��쓌,1.9,��
2017/12/24,10:00,0.906,1.511,0.947,1.782,1.203,0.498,0.884,0.850,��쓌,2.2,��
2017/12/24,10:10,0.907,1.511,0.946,1.782,1.206,0.497,0.885,0.849,��,2.6,��
2017/12/24,10:20,0.908,1.510,0.948,1.782,1.205,0.498,0.886,0.850,��,3.7,��
2017/12/24,10:30,0.906,1.511,0.945,1.781,1.206,0.499,0.884,0.851,��쓌,5.7,��
2017/12/24,10:40,0.907,1.509,0.947,1.782,1.206,0.499,0.884,0.849,��쓌,6.0,��
2017/12/24,10:50,0.907,1.510,0.949,1.783,1.208,0.498,0.883,0.852,��쓌,5.6,��
2017/12/24,11:00,0.910,1.509,0.947,1.783,1.209,0.498,0.884,0.849,��쓌,5.6,��
2017/12/24,11:10,0.908,1.509,0.947,1.785,1.208,0.498,0.885,0.850,��쓌,6.2,��
2017/12/24,11:20,0.910,1.510,0.949,1.782,1.211,0.499,0.884,0.852,��쓌,6.5,��
2017/12/24,11:30,0.908,1.511,0.949,1.783,1.208,0.498,0.883,0.850,��쓌,6.4,��
2017/12/24,11:40,0.909,1.506,0.949,1.784,1.209,0.498,0.886,0.851,��쓌,4.7,��
2017/12/24,11:50,0.911,1.508,0.949,1.785,1.206,0.498,0.885,0.851,��쓌,4.4,��
2017/12/24,12:00,0.909,1.507,0.947,1.784,1.205,0.498,0.885,0.851,��,4.8,��
2017/12/24,12:10,0.909,1.503,0.946,1.784,1.206,0.498,0.884,0.850,��,5.1,��
2017/12/24,12:20,0.910,1.509,0.949,1.780,1.207,0.498,0.883,0.852,��쓌,5.4,��
2017/12/24,12:30,0.907,1.510,0.951,1.785,1.206,0.501,0.885,0.849,��쓌,5.0,��
2017/12/24,12:40,0.908,1.511,0.949,1.783,1.206,0.499,0.883,0.850,��쓌,5.0,��
2017/12/24,12:50,0.909,1.510,0.949,1.783,1.210,0.499,0.886,0.850,��쓌,4.5,��
2017/12/24,13:00,0.909,1.512,0.948,1.782,1.209,0.498,0.885,0.853,��,3.4,��
2017/12/24,13:10,0.907,1.510,0.948,1.786,1.209,0.498,0.885,0.850,��,4.1,��
2017/12/24,13:20,0.907,1.512,0.947,1.783,1.208,0.499,0.884,0.850,��,5.0,��
2017/12/24,13:30,0.909,1.513,0.946,1.782,1.207,0.499,0.885,0.850,��,6.1,��
2017/12/24,13:40,0.908,1.512,0.948,1.783,1.211,0.499,0.885,0.851,��,5.7,�L
2017/12/24,13:50,0.910,1.515,0.948,1.786,1.207,0.499,0.884,0.850,��,5.6,��
2017/12/24,14:00,0.909,1.510,0.950,1.784,1.206,0.500,0.886,0.849,��,5.5,��
2017/12/24,14:10,0.908,1.512,0.946,1.783,1.209,0.499,0.885,0.850,��,5.4,�L
2017/12/24,14:20,0.909,1.512,0.948,1.784,1.208,0.499,0.885,0.851,��쓌,5.3,�L
2017/12/24,14:30,0.910,1.511,0.947,1.783,1.209,0.499,0.886,0.849,��쓌,5.4,��
2017/12/24,14:40,0.909,1.509,0.946,1.787,1.210,0.499,0.886,0.850,��쓌,6.0,��
2017/12/24,14:50,0.911,1.511,0.948,1.787,1.209,0.498,0.885,0.851,��쓌,6.1,�L
2017/12/24,15:00,0.909,1.511,0.947,1.782,1.211,0.499,0.885,0.850,��,5.0,�L
2017/12/24,15:10,0.908,1.511,0.949,1.784,1.209,0.500,0.886,0.852,��,4.8,�L
2017/12/24,15:20,0.910,1.508,0.948,1.779,1.205,0.500,0.885,0.849,��,4.8,�L
2017/12/24,15:30,0.909,1.510,0.947,1.784,1.208,0.498,0.885,0.850,��,5.4,�L
2017/12/24,15:40,0.910,1.507,0.948,1.781,1.208,0.499,0.885,0.849,��,5.9,�L
2017/12/24,15:50,0.907,1.509,0.948,1.783,1.206,0.498,0.884,0.851,��,5.3,��
2017/12/24,16:00,0.908,1.507,0.947,1.783,1.207,0.498,0.884,0.851,��,5.3,��
2017/12/24,16:10,0.908,1.507,0.946,1.780,1.207,0.498,0.885,0.851,��,5.0,�L
2017/12/24,16:20,0.908,1.507,0.947,1.779,1.206,0.497,0.885,0.852,��쓌,4.1,��
2017/12/24,16:30,0.908,1.507,0.946,1.782,1.207,0.499,0.883,0.850,��쓌,4.1,�L
2017/12/24,16:40,0.908,1.508,0.948,1.780,1.206,0.498,0.888,0.851,��쓌,4.5,�L
2017/12/24,16:50,0.908,1.507,0.946,1.782,1.206,0.499,0.884,0.851,��쓌,3.7,��
2017/12/24,17:00,0.907,1.510,0.948,1.782,1.206,0.497,0.885,0.850,��,3.1,��
2017/12/24,17:10,0.909,1.510,0.947,1.783,1.205,0.498,0.887,0.850,��쓌,3.1,�L
2017/12/24,17:20,0.908,1.507,0.948,1.779,1.205,0.500,0.885,0.850,��쓌,2.8,�L
2017/12/24,17:30,0.907,1.507,0.948,1.779,1.206,0.499,0.885,0.849,��쓌,4.0,�L
2017/12/24,17:40,0.909,1.507,0.948,1.781,1.203,0.499,0.885,0.851,��,4.8,�L
2017/12/24,17:50,0.910,1.509,0.949,1.781,1.205,0.498,0.885,0.850,��,4.4,�L
2017/12/24,18:00,0.909,1.506,0.946,1.782,1.205,0.498,0.885,0.849,��,4.5,��
2017/12/24,18:10,0.907,1.509,0.946,1.780,1.207,0.499,0.885,0.851,��,5.0,��
2017/12/24,18:20,0.910,1.506,0.947,1.783,1.206,0.499,0.885,0.851,��쓌,5.8,��
2017/12/24,18:30,0.908,1.505,0.946,1.783,1.204,0.499,0.887,0.849,��,6.8,��
2017/12/24,18:40,0.909,1.507,0.947,1.780,1.205,0.500,0.885,0.851,��,8.5,��
2017/12/24,18:50,0.908,1.507,0.949,1.781,1.207,0.498,0.886,0.850,��쓌,9.0,��
2017/12/24,19:00,0.909,1.506,0.946,1.784,1.207,0.499,0.888,0.850,��,9.1,��
2017/12/24,19:10,0.907,1.506,0.948,1.780,1.207,0.499,0.886,0.850,��,8.9,��
2017/12/24,19:20,0.909,1.507,0.947,1.782,1.209,0.499,0.887,0.849,��,8.1,��
2017/12/24,19:30,0.907,1.504,0.948,1.781,1.205,0.497,0.889,0.852,��쓌,8.7,��
2017/12/24,19:40,0.908,1.508,0.949,1.785,1.208,0.499,0.887,0.849,��,8.9,��
2017/12/24,19:50,0.910,1.508,0.947,1.782,1.205,0.500,0.886,0.851,��,8.1,��
2017/12/24,20:00,0.908,1.507,0.945,1.785,1.208,0.500,0.885,0.850,��,7.1,��
2017/12/24,20:10,0.909,1.506,0.948,1.779,1.209,0.499,0.887,0.851,��,7.0,��
2017/12/24,20:20,0.909,1.506,0.947,1.779,1.206,0.499,0.889,0.850,��,7.1,��
2017/12/24,20:30,0.909,1.507,0.947,1.781,1.206,0.499,0.886,0.851,��,6.8,��
2017/12/24,20:40,0.908,1.506,0.947,1.782,1.208,0.500,0.887,0.850,��,6.3,��
2017/12/24,20:50,0.909,1.508,0.950,1.781,1.207,0.500,0.886,0.850,��,7.3,��
2017/12/24,21:00,0.912,1.508,0.948,1.783,1.210,0.500,0.887,0.851,��,6.6,��
2017/12/24,21:10,0.910,1.511,0.949,1.784,1.207,0.500,0.885,0.850,��,6.6,��
2017/12/24,21:20,0.909,1.508,0.948,1.783,1.207,0.500,0.886,0.850,��,6.1,��
2017/12/24,21:30,0.910,1.506,0.949,1.784,1.208,0.500,0.888,0.850,��,5.8,��
2017/12/24,21:40,0.909,1.507,0.948,1.784,1.208,0.499,0.887,0.852,��,7.4,��
2017/12/24,21:50,0.910,1.509,0.949,1.784,1.209,0.502,0.888,0.852,��쐼,6.5,��
2017/12/24,22:00,0.911,1.508,0.947,1.780,1.208,0.499,0.888,0.851,��,8.2,��
2017/12/24,22:10,0.910,1.510,0.947,1.782,1.208,0.500,0.887,0.852,��,9.2,��
2017/12/24,22:20,0.909,1.509,0.950,1.782,1.208,0.500,0.888,0.852,��쐼,9.3,��
2017/12/24,22:30,0.911,1.509,0.949,1.782,1.206,0.502,0.888,0.852,��쐼,8.7,��
2017/12/24,22:40,0.910,1.511,0.950,1.783,1.207,0.503,0.887,0.852,��쐼,10.5,��
2017/12/24,22:50,0.911,1.514,0.949,1.784,1.209,0.504,0.889,0.852,��,10.2,��
2017/12/24,23:00,0.913,1.509,0.951,1.785,1.209,0.503,0.888,0.851,��쐼,10.0,��
2017/12/24,23:10,0.912,1.514,0.950,1.785,1.210,0.500,0.890,0.853,��쐼,9.8,��
2017/12/24,23:20,0.912,1.510,0.951,1.785,1.209,0.503,0.888,0.853,��쐼,9.8,��
2017/12/24,23:30,0.913,1.511,0.951,1.784,1.208,0.501,0.890,0.852,��쐼,10.0,��
2017/12/24,23:40,0.913,1.511,0.952,1.785,1.210,0.503,0.887,0.853,��쐼,12.5,��
2017/12/24,23:50,0.915,1.512,0.952,1.784,1.211,0.501,0.888,0.853,��쐼,10.5,��
